Regional Weather Roundup
Issued by NWS

Home | Current Version | Previous Version | Text Only | Print | Product List | Glossary Off
Versions: 1 2 3 4 5 6 7 8 9 10 11 12 13 14 15 16 17 18 19 20 21 22 23 24 25 26 27 28 29 30 31 32 33 34 35 36 37 38 39 40 41 42 43 44 45 46 47 48 49 50

000
ASUS43 KFSD 270102
RWRSD

WEATHER ROUNDUP FOR SOUTH DAKOTA
NATIONAL WEATHER SERVICE SIOUX FALLS SD
800 PM CDT SAT MAY 26 2018

NOTE: "FAIR" INDICATES FEW OR NO CLOUDS BELOW 12,000 FEET WITH NO
SIGNIFICANT WEATHER AND/OR OBSTRUCTIONS TO VISIBILITY.


SDZ001>005-009-010-012>017-270200-
NORTHWEST AND NORTH CENTRAL SOUTH DAKOTA

CITY           SKY/WX    TMP DP  RH WIND       PRES   REMARKS
BUFFALO          N/A     83  59  44 E17       29.65R
FAITH            N/A     83  65  54 E10       29.70F
MOBRIDGE       SUNNY     89  65  44 E5        29.69F
$$

SDZ012>016-024>037-041>051-057-063-072>074-270200-
SOUTHWEST AND SOUTH CENTRAL SOUTH DAKOTA

CITY           SKY/WX    TMP DP  RH WIND       PRES   REMARKS
RAPID CTY ARPT SUNNY     84  69  60 SE10      29.69F
PIERRE         SUNNY     85  64  49 SE10      29.69S
CUSTER         SUNNY     79  39  23 E6        29.89S
ELLSWORTH AFB  SUNNY     85  68  57 S8        29.70S
PHILIP         SUNNY     85  66  53 E13       29.66F
PINE RIDGE     SUNNY     90  53  28 SE8       29.72S
SPEARFISH      LGT RAIN  84  68  58 NE6       29.73S
WINNER         FAIR      85  68  56 SE9       29.73S
$$

SDZ004>011-016>023-039-040-270200-
NORTHEAST SOUTH DAKOTA

CITY           SKY/WX    TMP DP  RH WIND       PRES   REMARKS
ABERDEEN       MOSUNNY   91  53  27 N7        29.72R
WATERTOWN      CLEAR     86  59  39 SW3       29.75S
BROOKINGS      CLEAR     88  54  31 NE5       29.77R
SISSETON         N/A     89  51  27 W5        29.70R
$$

SDZ017-020-022-023-036>040-048>070-270200-
SOUTHEAST SOUTH DAKOTA

CITY           SKY/WX    TMP DP  RH WIND       PRES   REMARKS
SIOUX FALLS    CLEAR     89  58  34 CALM      29.75R
HURON          CLEAR     90  62  39 CALM      29.72R
CHAMBERLAIN    SUNNY     89  64  43 SE9       29.73S
MITCHELL       CLEAR     86  63  45 SE8       29.73R
YANKTON        CLEAR     93  55  27 NE5       29.73S
$$

ABBREVIATIONS USED IN REMARKS
   TC - TEMPERATURE IN CELSIUS
  WCI - WIND CHILL INDEX
   HX - HEAT INDEX
  VSB - VISIBILITY





USA.gov is the U.S. government's official web portal to all federal, state and local government web resources and services.